ECHOSTAR 10

Last updated on Sun Oct 06 2024 00:02:38 GMT+0000 (Coordinated Universal Time)

1 28935U 06003A 24279.51899928 -.00000045 00000+0 00000+0 0 9999 2 28935 0.0460 58.7396 0002504 79.6206 312.9780 1.00272171 68250
UTC large
Height (km)
Speed (km/s)
/
Latitude / Longitude
Inclination (degrees)
Orbital Period (minutes)
Azimuth
Elevation
Range (km)
Doppler Factor

Next 0 passes for location: London (51.5072 / 0.1276)

Sorry there are no passes over London.